Location: ??
(35.1715°N, 139.6450°E)
Time: 03:03:50
(UTC+00:00)

CZ-2D R/B - Pass Details

Date: 05 August 2024
Orbit: 790 x 842 km, 98.8° (Epoch: 10 September)

Event Time Altitude Azimuth Distance (km) Brightness Sun altitude
Rises 16:57:46 0° 9° (N) 3,317 6.2 -29.6°
Reaches altitude 10° 17:00:06 10° 6° (N) 2,389 5.2 -29.3°
Enters shadow 17:04:32 56° 327° (NNW) 962 2.5 -28.8°
